Meteo pe oră la Bolshie Zhuhovichi

Astăzi, 9 Mai, Duminică

Timp Temperatura Precipitaţii Vânt Presiune Umiditate
00:00 +2°C° 0 mm 2 m/s 748 mmHg 90%
01:00 +1°C° 0 mm 2 m/s 749 mmHg 91%
02:00 +1°C° 0 mm 2 m/s 749 mmHg 92%
03:00 +1°C° 0 mm 2 m/s 750 mmHg 92%
04:00 +1°C° 0 mm 2 m/s 750 mmHg 92%
05:00 +1°C° 0 mm 2 m/s 750 mmHg 93%
06:00 +3°C° 0 mm 2 m/s 751 mmHg 86%
07:00 +5°C° 0 mm 2 m/s 751 mmHg 78%
08:00 +8°C° 0 mm 1 m/s 752 mmHg 71%
09:00 +8°C° 0 mm 2 m/s 752 mmHg 66%
10:00 +9°C° 0 mm 2 m/s 752 mmHg 60%
11:00 +10°C° 0 mm 2 m/s 752 mmHg 54%
12:00 +12°C° 0 mm 2 m/s 752 mmHg 51%
13:00 +12°C° 0 mm 3 m/s 752 mmHg 48%
14:00 +13°C° 0 mm 3 m/s 752 mmHg 45%
15:00 +13°C° 0 mm 3 m/s 752 mmHg 47%
16:00 +13°C° 0 mm 3 m/s 752 mmHg 48%
17:00 +13°C° 0 mm 3 m/s 751 mmHg 49%
18:00 +11°C° 0 mm 3 m/s 752 mmHg 56%
19:00 +10°C° 0 mm 3 m/s 752 mmHg 63%
20:00 +8°C° 0 mm 3 m/s 752 mmHg 69%
21:00 +8°C° 0 mm 3 m/s 752 mmHg 68%
22:00 +9°C° 0 mm 3 m/s 752 mmHg 67%
23:00 +8°C° 0 mm 4 m/s 752 mmHg 65%

Mâine, 10 Mai, Luni

Timp Temperatura Precipitaţii Vânt Presiune Umiditate
00:00 +7°C° 0 mm 4 m/s 752 mmHg 66%
01:00 +7°C° 0 mm 4 m/s 753 mmHg 67%
02:00 +7°C° 0 mm 4 m/s 753 mmHg 68%
03:00 +6°C° 0 mm 4 m/s 753 mmHg 70%
04:00 +6°C° 0 mm 4 m/s 753 mmHg 73%
05:00 +5°C° 0 mm 3 m/s 753 mmHg 75%
06:00 +7°C° 0 mm 4 m/s 753 mmHg 73%
07:00 +8°C° 0 mm 4 m/s 753 mmHg 70%
08:00 +10°C° 0 mm 5 m/s 754 mmHg 67%
09:00 +13°C° 0 mm 5 m/s 754 mmHg 64%
10:00 +14°C° 0 mm 5 m/s 753 mmHg 60%
11:00 +16°C° 0 mm 6 m/s 753 mmHg 56%
12:00 +17°C° 0 mm 6 m/s 753 mmHg 55%
13:00 +17°C° 0 mm 6 m/s 753 mmHg 53%
14:00 +19°C° 0 mm 6 m/s 753 mmHg 52%
15:00 +19°C° 0 mm 5 m/s 753 mmHg 55%
16:00 +19°C° 0 mm 5 m/s 753 mmHg 57%
17:00 +17°C° 0 mm 5 m/s 752 mmHg 60%
18:00 +17°C° 0 mm 4 m/s 753 mmHg 66%
19:00 +14°C° 0 mm 4 m/s 753 mmHg 73%
20:00 +12°C° 0 mm 4 m/s 753 mmHg 79%
21:00 +11°C° 0 mm 4 m/s 753 mmHg 79%
22:00 +10°C° 0 mm 4 m/s 753 mmHg 79%
23:00 +10°C° 0 mm 4 m/s 753 mmHg 78%

Poimâine, 11 Mai, Marţi

Timp Temperatura Precipitaţii Vânt Presiune Umiditate
00:00 +8°C° 0 mm 4 m/s 753 mmHg 80%
01:00 +8°C° 0 mm 4 m/s 753 mmHg 81%
02:00 +7°C° 0 mm 4 m/s 753 mmHg 82%
03:00 +7°C° 0 mm 4 m/s 753 mmHg 82%
04:00 +6°C° 0 mm 4 m/s 753 mmHg 82%
05:00 +6°C° 0 mm 4 m/s 753 mmHg 83%
06:00 +8°C° 0 mm 5 m/s 753 mmHg 77%
07:00 +9°C° 0 mm 5 m/s 753 mmHg 71%
08:00 +11°C° 0 mm 6 m/s 753 mmHg 66%
09:00 +13°C° 0 mm 6 m/s 753 mmHg 60%
10:00 +15°C° 0 mm 6 m/s 753 mmHg 54%
11:00 +16°C° 0 mm 6 m/s 753 mmHg 49%
12:00 +17°C° 0 mm 6 m/s 753 mmHg 48%
13:00 +17°C° 0 mm 6 m/s 753 mmHg 47%
14:00 +19°C° 0 mm 6 m/s 752 mmHg 46%
15:00 +19°C° 0 mm 6 m/s 752 mmHg 49%
16:00 +17°C° 0 mm 5 m/s 752 mmHg 52%
17:00 +17°C° 0 mm 5 m/s 751 mmHg 55%
18:00 +15°C° 0 mm 4 m/s 751 mmHg 61%
19:00 +13°C° 0 mm 4 m/s 751 mmHg 67%
20:00 +11°C° 0 mm 3 m/s 751 mmHg 73%
21:00 +11°C° 0 mm 4 m/s 751 mmHg 74%
22:00 +10°C° 0 mm 4 m/s 751 mmHg 76%
23:00 +10°C° 0 mm 4 m/s 751 mmHg 77%

12 Mai, Miercuri

Timp Temperatura Precipitaţii Vânt Presiune Umiditate
00:00 +8°C° 0 mm 4 m/s 751 mmHg 82%
01:00 +8°C° 0 mm 4 m/s 750 mmHg 86%
02:00 +9°C° 0 mm 3 m/s 750 mmHg 91%
03:00 +9°C° 0 mm 3 m/s 750 mmHg 93%
04:00 +9°C° 0 mm 3 m/s 750 mmHg 95%
05:00 +8°C° 0 mm 3 m/s 750 mmHg 96%
06:00 +10°C° 0 mm 3 m/s 750 mmHg 90%
07:00 +12°C° 0 mm 4 m/s 750 mmHg 83%
08:00 +13°C° 0 mm 5 m/s 750 mmHg 76%
09:00 +15°C° 0 mm 5 m/s 749 mmHg 72%
10:00 +16°C° 0 mm 5 m/s 749 mmHg 68%
11:00 +17°C° 0 mm 5 m/s 748 mmHg 64%
12:00 +16°C° 0 mm 5 m/s 748 mmHg 70%
13:00 +15°C° 0 mm 4 m/s 747 mmHg 76%
14:00 +14°C° 0 mm 4 m/s 747 mmHg 82%
15:00 +14°C° 0.1 mm 4 m/s 747 mmHg 83%
16:00 +13°C° 0.1 mm 5 m/s 746 mmHg 84%
17:00 +13°C° 0.1 mm 5 m/s 746 mmHg 85%
18:00 +12°C° 0.6 mm 5 m/s 746 mmHg 87%
19:00 +10°C° 0.6 mm 5 m/s 746 mmHg 89%
20:00 +10°C° 0.6 mm 4 m/s 747 mmHg 91%
21:00 +8°C° 0 mm 5 m/s 747 mmHg 92%
22:00 +8°C° 0 mm 5 m/s 747 mmHg 94%
23:00 +7°C° 0 mm 5 m/s 747 mmHg 95%

13 Mai, Joi

Timp Temperatura Precipitaţii Vânt Presiune Umiditate
00:00 +7°C° 0 mm 4 m/s 746 mmHg 95%
01:00 +7°C° 0 mm 4 m/s 746 mmHg 95%
02:00 +8°C° 0 mm 3 m/s 746 mmHg 96%
03:00 +7°C° 0 mm 4 m/s 745 mmHg 95%
04:00 +8°C° 0 mm 4 m/s 745 mmHg 95%
05:00 +8°C° 0 mm 4 m/s 745 mmHg 94%
06:00 +8°C° 0 mm 4 m/s 744 mmHg 94%
07:00 +9°C° 0 mm 3 m/s 744 mmHg 94%
08:00 +10°C° 0 mm 3 m/s 743 mmHg 94%
09:00 +10°C° 0.7 mm 3 m/s 743 mmHg 94%
10:00 +10°C° 0.7 mm 3 m/s 742 mmHg 95%
11:00 +9°C° 0.7 mm 3 m/s 742 mmHg 95%
12:00 +10°C° 1.5 mm 3 m/s 742 mmHg 94%
13:00 +10°C° 1.5 mm 3 m/s 741 mmHg 93%
14:00 +10°C° 1.5 mm 3 m/s 741 mmHg 92%
15:00 +10°C° 0.3 mm 3 m/s 741 mmHg 90%
16:00 +11°C° 0.3 mm 3 m/s 741 mmHg 87%
17:00 +11°C° 0.3 mm 3 m/s 741 mmHg 85%
18:00 +12°C° 0.3 mm 2 m/s 741 mmHg 86%
19:00 +10°C° 0.3 mm 2 m/s 741 mmHg 88%
20:00 +10°C° 0.3 mm 2 m/s 741 mmHg 89%
21:00 +9°C° 0.1 mm 3 m/s 741 mmHg 91%
22:00 +8°C° 0.1 mm 4 m/s 741 mmHg 93%
23:00 +7°C° 0.1 mm 4 m/s 741 mmHg 95%

14 Mai, Vineri

Timp Temperatura Precipitaţii Vânt Presiune Umiditate
00:00 +7°C° 0 mm 4 m/s 741 mmHg 96%
01:00 +7°C° 0 mm 4 m/s 741 mmHg 96%
02:00 +8°C° 0 mm 3 m/s 741 mmHg 97%
03:00 +8°C° 0.1 mm 3 m/s 741 mmHg 97%
04:00 +8°C° 0.1 mm 2 m/s 741 mmHg 97%
05:00 +9°C° 0.1 mm 2 m/s 741 mmHg 97%
06:00 +9°C° 0 mm 2 m/s 741 mmHg 96%
07:00 +9°C° 0 mm 2 m/s 741 mmHg 96%
08:00 +10°C° 0 mm 2 m/s 741 mmHg 95%
09:00 +12°C° 0 mm 2 m/s 741 mmHg 92%
10:00 +11°C° 0 mm 3 m/s 742 mmHg 89%
11:00 +12°C° 0 mm 3 m/s 742 mmHg 86%
12:00 +13°C° 0 mm 3 m/s 742 mmHg 86%
13:00 +13°C° 0 mm 3 m/s 742 mmHg 86%
14:00 +13°C° 0 mm 3 m/s 742 mmHg 86%
15:00 +14°C° 0 mm 3 m/s 742 mmHg 84%
16:00 +15°C° 0 mm 2 m/s 742 mmHg 81%
17:00 +16°C° 0 mm 2 m/s 742 mmHg 79%
18:00 +15°C° 0 mm 2 m/s 742 mmHg 83%
19:00 +14°C° 0 mm 1 m/s 742 mmHg 86%
20:00 +13°C° 0 mm 1 m/s 742 mmHg 90%
21:00 +12°C° 0 mm 1 m/s 742 mmHg 91%
22:00 +12°C° 0 mm 1 m/s 742 mmHg 92%
23:00 +11°C° 0 mm 1 m/s 742 mmHg 93%
Arată mai mult

Formular de consimțământ

Meteoprog și furnizorii noștri de servicii pot stoca și accesa date personale, precum cookies, identificatori de dispozitiv sau alte tehnologii similare pe dispozitivul dumneavoastră și procesa astfel de date pentru a personaliza conținutul și reclamele, dar și pentru a oferi caracteristici de social media și pentru a analiza traficul.

  • Stocarea și/sau accesarea informațiilor pe dispozitivul dumneavoastră

    Cookies, identificatori de dispozitiv sau alte informații pot fi stocate sau accesate pe dispozitiv în scopurile indicate mai sus.

  • Reclame și conținut personalizat, evaluarea reclamelor și a conținutului, informații despre audiențe și dezvoltarea produselor

    Reclamele și conținutul pot fi personalizate pe baza unui profil. Pot fi adăugate date suplimentare pentru a personaliza mai bine reclamele și conținutul. Performanța reclamelor și conținutului poate fi măsurată. Pot fi obținute informații despre utilizatorii care au văzut reclamele și conținutul. Aceste date pot fi utilizate pentru a dezvolta sau îmbunătăți experiența utilizatorilor, sistemele și software-ul.

Dând clic pe ‘Sunt de acord’, permiteți utilizarea cookie-urilor menționate, a identificatorilor de dispozitiv, balizelor web sau altor tehnologii similare. Setările pot fi modificate din browser-ul dispozitivului dumneavoastră.

În anumite scopuri, interesele legitime pot prima asupra consimțământului. Puteți citi mai multe informații în acest sens în Politica privind Confidențialitatea Datelor și Cookie.